カタログに戻る

STARLINK-2432

運用中通信VLEO
NORAD 47840·PAYLOAD·🇺🇸 United States

打ち上げ Mar 11, 2021 から Cape Canaveral Space Force Station

Loading…

次のパス (今後24時間)

TLE

最新Source: CelesTrak SupGP

元期: Sep 14, 2026, 20:37 UTC

1 47840C 21018BF  26257.85951389  .00018606  00000+0  59836-3 0  2576
2 47840  53.1585  78.8626 0001095  84.2627   5.4099 15.31690878    19

AllMySatでSTARLINK-2432をリアルタイム追跡

Download on the App Store